GW7081 Weather Reports


Display with metric or nautical units.
time (UTC)temp
F
wind
direction
speed
MPH
gust
MPH
rain 1hr
in
rain 24hr
in
rain mn
in
humidity
%
barometer
mb
20260505034520 59 299 1.0 6.0 0.00 0.00 0.00 76 1011.9
20260505033006 60 305 0.0 3.0 0.00 0.00 0.00 74 1011.6
20260505031509 61 314 1.0 6.0 0.00 0.00 0.00 73 1011.4
20260505030012 63 315 1.0 4.0 0.00 0.00 0.00 70 1011.2
20260505024516 64 319 0.0 3.0 0.00 0.00 0.00 69 1011.0
20260505023025 65 288 0.0 2.0 0.00 0.00 0.00 67 1010.9
20260505021513 67 289 0.0 4.0 0.00 0.00 0.00 65 1010.9
20260505020012 68 297 1.0 6.0 0.00 0.00 0.00 64 1010.6
20260505014515 70 286 0.0 6.0 0.00 0.00 0.00 62 1010.6
20260505013018 71 328 2.0 5.0 0.00 0.00 0.00 59 1010.6
20260505011526 72 230 1.0 4.0 0.00 0.00 0.00 58 1010.5
20260505010009 73 350 1.0 5.0 0.00 0.00 0.00 55 1010.4
20260505004518 76 323 1.0 4.0 0.00 0.00 0.00 53 1010.4
20260505003015 78 239 1.0 4.0 0.00 0.00 0.00 49 1010.3
20260505001524 79 280 0.0 6.0 0.00 0.00 0.00 49 1010.3
20260505000026 80 232 2.0 7.0 0.00 0.00 0.00 46 1010.2
20260504234510 81 236 1.0 7.0 0.00 0.00 0.00 47 1010.2
20260504233013 82 259 0.0 4.0 0.00 0.00 0.00 46 1010.2
20260504231520 82 269 1.0 6.0 0.00 0.00 0.00 47 1010.1
20260504230025 83 97 0.0 5.0 0.00 0.00 0.00 45 1010.2
20260504224524 83 252 0.0 6.0 0.00 0.00 0.00 45 1010.3
20260504223014 82 277 2.0 8.0 0.00 0.00 0.00 42 1010.5
20260504221516 82 16 2.0 6.0 0.00 0.00 0.00 43 1010.5
20260504220036 81 278 1.0 6.0 0.00 0.00 0.00 46 1010.6
20260504214526 83 42 2.0 7.0 0.00 0.00 0.00 48 1010.8
20260504213027 82 300 0.0 4.0 0.00 0.00 0.00 45 1010.9
20260504211524 81 106 1.0 6.0 0.00 0.00 0.00 47 1011.0
20260504210018 80 171 2.0 5.0 0.00 0.00 0.00 48 1011.2
20260504204527 80 200 2.0 6.0 0.00 0.00 0.00 48 1011.3
20260504203028 78 5 0.0 4.0 0.00 0.00 0.00 50 1011.4
20260504201528 78 89 2.0 5.0 0.00 0.00 0.00 50 1011.5
20260504200016 77 120 2.0 4.0 0.00 0.00 0.00 50 1011.7
20260504194520 76 115 1.0 6.0 0.00 0.00 0.00 52 1011.9
20260504193026 76 86 1.0 6.0 0.00 0.00 0.00 53 1012.1
20260504191526 74 215 2.0 6.0 0.00 0.00 0.00 56 1012.1
20260504190028 74 172 4.0 6.0 0.00 0.00 0.00 56 1012.1
20260504184520 73 229 2.0 6.0 0.00 0.00 0.00 57 1012.3
20260504183003 73 176 3.0 7.0 0.00 0.00 0.00 57 1012.3
20260504181514 71 157 1.0 5.0 0.00 0.00 0.00 58 1012.4
20260504180012 70 124 2.0 5.0 0.00 0.00 0.00 59 1012.4
20260504174514 69 154 0.0 7.0 0.00 0.00 0.00 62 1012.4
20260504173010 69 99 2.0 4.0 0.00 0.00 0.00 63 1012.5
20260504171547 68 167 3.0 5.0 0.00 0.00 0.00 64 1012.4
20260504081527 52 258 0.0 0.0 0.00 0.00 0.00 90 1009.6
20260504050019 60 258 0.0 0.0 0.00 0.00 0.00 79 1009.5
20260504044525 61 258 0.0 0.0 0.00 0.00 0.00 77 1009.4
20260504043026 62 258 0.0 0.0 0.00 0.00 0.00 76 1009.3
20260504041526 63 258 0.0 0.0 0.00 0.00 0.00 75 1009.0
20260504040014 65 258 0.0 0.0 0.00 0.00 0.00 71 1008.9